Location: Bothwell
(41.7170°N, 112.2589°W)
Time: 20:25:18
(UTC+00:00)

ACS3 Solar Sail - Pass Details

Date: 24 April 2026
Orbit: 894 x 947 km, 97.2° (Epoch: 12 May)

Event Time Altitude Azimuth Distance (km) Brightness Sun altitude
Rises 08:27:52 0° 13° (NNE) 3,557 5.8 -33.6°
Reaches altitude 10° 08:30:17 10° 15° (NNE) 2,618 4.9 -33.5°
Enters shadow 08:35:01 58° 35° (NE) 1,068 2.1 -33.2°
